| time (UTC) | temp F | wind direction | speed MPH | gust MPH | rain 1hr in | rain 24hr in | rain mn in | humidity % | barometer mb |
| 20260506172457 | 66 | 217 | 10.0 | 21.0 | 0.02 | 0.05 | 0.05 | 79 | 1008.4 |
| 20260506171952 | 66 | 197 | 10.0 | 21.0 | 0.02 | 0.05 | 0.05 | 79 | 1008.5 |
| 20260506171446 | 66 | 207 | 10.0 | 21.0 | 0.03 | 0.05 | 0.05 | 79 | 1008.4 |
| 20260506170941 | 66 | 222 | 9.0 | 21.0 | 0.03 | 0.05 | 0.05 | 79 | 1008.4 |
| 20260506170433 | 66 | 207 | 8.0 | 17.0 | 0.04 | 0.05 | 0.05 | 80 | 1008.4 |
| 20260506165927 | 66 | 236 | 8.0 | 14.0 | 0.04 | 0.05 | 0.05 | 81 | 1008.4 |
| 20260506165422 | 66 | 208 | 7.0 | 15.0 | 0.04 | 0.05 | 0.05 | 82 | 1008.4 |
| 20260506165146 | 66 | 211 | 7.0 | 15.0 | 0.04 | 0.05 | 0.05 | 82 | 1008.5 |
| 20260506164410 | 66 | 238 | 7.0 | 14.0 | 0.04 | 0.05 | 0.05 | 83 | 1008.6 |
| 20260506163904 | 65 | 179 | 7.0 | 15.0 | 0.04 | 0.04 | 0.04 | 83 | 1008.6 |
| 20260506163357 | 65 | 185 | 6.0 | 15.0 | 0.04 | 0.04 | 0.04 | 82 | 1008.8 |
| 20260506162851 | 65 | 196 | 7.0 | 14.0 | 0.04 | 0.04 | 0.04 | 81 | 1009.1 |
| 20260506162345 | 65 | 227 | 7.0 | 14.0 | 0.03 | 0.03 | 0.03 | 80 | 1009.3 |
| 20260506161839 | 66 | 205 | 8.0 | 17.0 | 0.03 | 0.03 | 0.03 | 79 | 1009.4 |
| 20260506161333 | 66 | 226 | 9.0 | 17.0 | 0.02 | 0.02 | 0.02 | 77 | 1009.6 |
| 20260506160828 | 66 | 248 | 9.0 | 17.0 | 0.01 | 0.01 | 0.01 | 76 | 1009.7 |
| 20260506160321 | 66 | 199 | 10.0 | 21.0 | 0.01 | 0.01 | 0.01 | 76 | 1009.9 |
| 20260506155817 | 66 | 225 | 9.0 | 21.0 | 0.01 | 0.01 | 0.01 | 75 | 1010.0 |
| 20260506155318 | 66 | 221 | 9.0 | 19.0 | 0.01 | 0.01 | 0.01 | 76 | 1009.9 |
| 20260506154815 | 66 | 221 | 10.0 | 19.0 | 0.01 | 0.01 | 0.01 | 75 | 1010.0 |
| 20260506154316 | 67 | 205 | 8.0 | 18.0 | 0.01 | 0.01 | 0.01 | 74 | 1010.0 |
| 20260506153816 | 67 | 247 | 9.0 | 25.0 | 0.00 | 0.00 | 0.00 | 73 | 1009.9 |
| 20260506153316 | 67 | 228 | 10.0 | 25.0 | 0.00 | 0.00 | 0.00 | 71 | 1009.7 |
| 20260506152816 | 67 | 218 | 11.0 | 26.0 | 0.00 | 0.00 | 0.00 | 70 | 1009.8 |
| 20260506152316 | 68 | 233 | 11.0 | 26.0 | 0.00 | 0.00 | 0.00 | 70 | 1009.8 |
| 20260506151818 | 69 | 211 | 11.0 | 21.0 | 0.00 | 0.00 | 0.00 | 67 | 1009.8 |
| 20260506151814 | 68 | 169 | 11.0 | 21.0 | 0.00 | 0.00 | 0.00 | 68 | 1009.9 |
| 20260506150812 | 69 | 210 | 11.0 | 21.0 | 0.00 | 0.00 | 0.00 | 65 | 1009.4 |
| 20260506150313 | 69 | 155 | 12.0 | 25.0 | 0.00 | 0.00 | 0.00 | 65 | 1009.6 |
| 20260506150043 | 69 | 196 | 11.0 | 25.0 | 0.00 | 0.00 | 0.00 | 65 | 1009.7 |
| 20260506145545 | 69 | 271 | 10.0 | 17.0 | 0.00 | 0.00 | 0.00 | 66 | 1009.8 |
| 20260506144813 | 69 | 243 | 11.0 | 17.0 | 0.00 | 0.00 | 0.00 | 66 | 1009.9 |
| 20260506144314 | 69 | 229 | 11.0 | 22.0 | 0.00 | 0.00 | 0.00 | 65 | 1009.9 |
| 20260506143806 | 69 | 216 | 11.0 | 22.0 | 0.00 | 0.00 | 0.00 | 64 | 1010.0 |
| 20260506143307 | 69 | 223 | 11.0 | 23.0 | 0.00 | 0.00 | 0.00 | 64 | 1010.0 |
| 20260506142804 | 69 | 156 | 12.0 | 28.0 | 0.00 | 0.00 | 0.00 | 63 | 1009.8 |
| 20260506142535 | 69 | 217 | 12.0 | 28.0 | 0.00 | 0.00 | 0.00 | 63 | 1009.8 |
| 20260506141805 | 69 | 221 | 12.0 | 24.0 | 0.00 | 0.00 | 0.00 | 63 | 1009.7 |
| 20260506141305 | 69 | 216 | 12.0 | 20.0 | 0.00 | 0.00 | 0.00 | 63 | 1009.8 |
| 20260506140805 | 69 | 227 | 12.0 | 21.0 | 0.00 | 0.00 | 0.00 | 64 | 1009.8 |
| 20260506140539 | 69 | 236 | 10.0 | 22.0 | 0.00 | 0.00 | 0.00 | 64 | 1009.7 |
| 20260506135805 | 69 | 190 | 10.0 | 22.0 | 0.00 | 0.00 | 0.00 | 65 | 1009.7 |
| 20260506135306 | 69 | 242 | 11.0 | 22.0 | 0.00 | 0.00 | 0.00 | 66 | 1009.7 |
| 20260506134801 | 68 | 182 | 11.0 | 22.0 | 0.00 | 0.00 | 0.00 | 66 | 1009.7 |
| 20260506134302 | 68 | 223 | 10.0 | 22.0 | 0.00 | 0.00 | 0.00 | 66 | 1009.6 |
| 20260506133801 | 68 | 232 | 10.0 | 26.0 | 0.00 | 0.00 | 0.00 | 67 | 1009.7 |
| 20260506133302 | 68 | 180 | 10.0 | 26.0 | 0.00 | 0.00 | 0.00 | 67 | 1009.7 |
| 20260506133032 | 68 | 205 | 10.0 | 26.0 | 0.00 | 0.00 | 0.00 | 67 | 1009.7 |
| 20260506132301 | 68 | 214 | 11.0 | 26.0 | 0.00 | 0.00 | 0.00 | 67 | 1009.7 |
| 20260506131803 | 68 | 183 | 11.0 | 24.0 | 0.00 | 0.00 | 0.00 | 67 | 1009.8 |
| 20260506131534 | 68 | 192 | 12.0 | 24.0 | 0.00 | 0.00 | 0.00 | 67 | 1009.9 |
| 20260506130802 | 68 | 213 | 12.0 | 24.0 | 0.00 | 0.00 | 0.00 | 67 | 1009.9 |
| 20260506130528 | 68 | 226 | 11.0 | 21.0 | 0.00 | 0.00 | 0.00 | 68 | 1010.1 |
| 20260506125756 | 68 | 211 | 10.0 | 21.0 | 0.00 | 0.00 | 0.00 | 68 | 1010.0 |
| 20260506125258 | 68 | 207 | 11.0 | 22.0 | 0.00 | 0.00 | 0.00 | 68 | 1009.8 |
| 20260506124758 | 68 | 229 | 11.0 | 22.0 | 0.00 | 0.00 | 0.00 | 68 | 1009.9 |
| 20260506124257 | 68 | 237 | 10.0 | 23.0 | 0.00 | 0.00 | 0.00 | 69 | 1010.0 |
| 20260506123758 | 67 | 209 | 12.0 | 23.0 | 0.00 | 0.00 | 0.00 | 69 | 1009.9 |
| 20260506123259 | 68 | 191 | 12.0 | 23.0 | 0.00 | 0.00 | 0.00 | 68 | 1009.8 |
| 20260506122759 | 67 | 196 | 10.0 | 21.0 | 0.00 | 0.00 | 0.00 | 69 | 1009.8 |
| 20260506122259 | 67 | 200 | 10.0 | 21.0 | 0.00 | 0.00 | 0.00 | 70 | 1009.7 |
| 20260506121753 | 67 | 193 | 9.0 | 18.0 | 0.00 | 0.00 | 0.00 | 70 | 1009.7 |
| 20260506121255 | 66 | 232 | 9.0 | 20.0 | 0.00 | 0.00 | 0.00 | 71 | 1009.8 |
| 20260506121026 | 66 | 178 | 9.0 | 20.0 | 0.00 | 0.00 | 0.00 | 71 | 1010.0 |
| 20260506120252 | 66 | 211 | 10.0 | 19.0 | 0.00 | 0.00 | 0.00 | 72 | 1010.0 |
| 20260506115754 | 66 | 184 | 11.0 | 19.0 | 0.00 | 0.00 | 0.00 | 71 | 1009.8 |
| 20260506115252 | 66 | 201 | 10.0 | 18.0 | 0.00 | 0.00 | 0.00 | 71 | 1010.0 |
| 20260506114752 | 66 | 221 | 10.0 | 20.0 | 0.00 | 0.00 | 0.00 | 72 | 1010.0 |
| 20260506114252 | 66 | 214 | 10.0 | 21.0 | 0.00 | 0.00 | 0.00 | 72 | 1009.9 |
| 20260506113751 | 66 | 194 | 9.0 | 21.0 | 0.00 | 0.00 | 0.00 | 72 | 1009.9 |
| 20260506113251 | 66 | 181 | 10.0 | 17.0 | 0.00 | 0.00 | 0.00 | 72 | 1010.0 |
| 20260506112750 | 65 | 153 | 10.0 | 17.0 | 0.00 | 0.00 | 0.00 | 72 | 1010.1 |
| 20260506112251 | 65 | 238 | 8.0 | 18.0 | 0.00 | 0.00 | 0.00 | 72 | 1009.9 |
| 20260506111745 | 65 | 206 | 10.0 | 23.0 | 0.00 | 0.00 | 0.00 | 72 | 1010.0 |
| 20260506111239 | 65 | 232 | 10.0 | 23.0 | 0.00 | 0.00 | 0.00 | 72 | 1009.9 |
| 20260506110733 | 65 | 199 | 10.0 | 22.0 | 0.00 | 0.00 | 0.00 | 73 | 1009.9 |
| 20260506110227 | 65 | 194 | 9.0 | 20.0 | 0.00 | 0.00 | 0.00 | 73 | 1009.9 |
| 20260506105721 | 65 | 176 | 9.0 | 20.0 | 0.00 | 0.00 | 0.00 | 74 | 1009.9 |
| 20260506105214 | 65 | 206 | 9.0 | 20.0 | 0.00 | 0.00 | 0.00 | 74 | 1009.9 |
| 20260506104709 | 65 | 180 | 9.0 | 18.0 | 0.00 | 0.00 | 0.00 | 74 | 1009.9 |
| 20260506104203 | 65 | 198 | 10.0 | 18.0 | 0.00 | 0.00 | 0.00 | 75 | 1009.8 |
| 20260506103928 | 65 | 194 | 8.0 | 16.0 | 0.00 | 0.00 | 0.00 | 75 | 1010.0 |
| 20260506103155 | 64 | 211 | 7.0 | 14.0 | 0.00 | 0.00 | 0.00 | 76 | 1009.9 |
| 20260506102652 | 64 | 171 | 8.0 | 21.0 | 0.00 | 0.00 | 0.00 | 76 | 1009.8 |
| 20260506102152 | 64 | 166 | 8.0 | 21.0 | 0.00 | 0.00 | 0.00 | 76 | 1009.8 |
| 20260506101653 | 64 | 178 | 8.0 | 17.0 | 0.00 | 0.00 | 0.00 | 76 | 1009.9 |
| 20260506101152 | 64 | 194 | 8.0 | 17.0 | 0.00 | 0.00 | 0.00 | 76 | 1009.9 |
| 20260506100652 | 64 | 207 | 7.0 | 15.0 | 0.00 | 0.00 | 0.00 | 76 | 1010.0 |
| 20260506100153 | 65 | 204 | 7.0 | 15.0 | 0.00 | 0.00 | 0.00 | 76 | 1010.0 |
| 20260506095653 | 65 | 188 | 7.0 | 15.0 | 0.00 | 0.00 | 0.00 | 76 | 1010.0 |
| 20260506095154 | 65 | 94 | 7.0 | 15.0 | 0.00 | 0.00 | 0.00 | 76 | 1009.9 |
| 20260506094651 | 65 | 221 | 7.0 | 15.0 | 0.00 | 0.00 | 0.00 | 76 | 1009.8 |
| 20260506094150 | 65 | 186 | 7.0 | 15.0 | 0.00 | 0.00 | 0.00 | 76 | 1009.9 |
| 20260506093650 | 65 | 238 | 8.0 | 15.0 | 0.00 | 0.00 | 0.00 | 76 | 1009.8 |
| 20260506093150 | 65 | 194 | 9.0 | 19.0 | 0.00 | 0.00 | 0.00 | 76 | 1009.8 |
| 20260506092652 | 65 | 223 | 9.0 | 19.0 | 0.00 | 0.00 | 0.00 | 76 | 1009.7 |
| 20260506092153 | 65 | 224 | 8.0 | 14.0 | 0.00 | 0.00 | 0.00 | 75 | 1009.8 |
| 20260506091924 | 65 | 192 | 7.0 | 17.0 | 0.00 | 0.00 | 0.00 | 75 | 1009.7 |
| 20260506091152 | 65 | 194 | 8.0 | 16.0 | 0.00 | 0.00 | 0.00 | 75 | 1009.8 |
| 20260506090646 | 65 | 194 | 7.0 | 16.0 | 0.00 | 0.00 | 0.00 | 75 | 1009.9 |
| 20260506090141 | 65 | 209 | 7.0 | 16.0 | 0.00 | 0.00 | 0.00 | 75 | 1010.0 |
| 20260506085634 | 65 | 198 | 7.0 | 16.0 | 0.00 | 0.00 | 0.00 | 75 | 1009.9 |
| 20260506085128 | 65 | 190 | 8.0 | 16.0 | 0.00 | 0.00 | 0.00 | 75 | 1009.9 |
| 20260506084621 | 65 | 204 | 8.0 | 16.0 | 0.00 | 0.00 | 0.00 | 75 | 1009.9 |
| 20260506084117 | 65 | 198 | 8.0 | 16.0 | 0.00 | 0.00 | 0.00 | 75 | 1010.0 |
| 20260506083610 | 66 | 213 | 7.0 | 15.0 | 0.00 | 0.00 | 0.00 | 75 | 1010.0 |
| 20260506083104 | 66 | 184 | 8.0 | 15.0 | 0.00 | 0.00 | 0.00 | 74 | 1010.1 |
| 20260506082558 | 66 | 183 | 9.0 | 16.0 | 0.00 | 0.00 | 0.00 | 74 | 1010.1 |
| 20260506082053 | 66 | 157 | 10.0 | 20.0 | 0.00 | 0.00 | 0.00 | 74 | 1010.0 |
| 20260506081546 | 66 | 194 | 9.0 | 20.0 | 0.00 | 0.00 | 0.00 | 74 | 1010.1 |
| 20260506081040 | 66 | 183 | 9.0 | 17.0 | 0.00 | 0.00 | 0.00 | 74 | 1010.1 |
| 20260506080535 | 66 | 221 | 9.0 | 17.0 | 0.00 | 0.00 | 0.00 | 74 | 1010.1 |
| 20260506073459 | 66 | 209 | 7.0 | 14.0 | 0.00 | 0.00 | 0.00 | 74 | 1010.1 |
| 20260506073224 | 66 | 193 | 7.0 | 13.0 | 0.00 | 0.00 | 0.00 | 74 | 1010.2 |
| 20260506072446 | 66 | 200 | 7.0 | 13.0 | 0.00 | 0.00 | 0.00 | 74 | 1010.2 |
| 20260506071941 | 66 | 188 | 7.0 | 13.0 | 0.00 | 0.00 | 0.00 | 74 | 1010.3 |
| 20260506071705 | 66 | 187 | 6.0 | 13.0 | 0.00 | 0.00 | 0.00 | 74 | 1010.3 |
| 20260506070928 | 66 | 227 | 5.0 | 11.0 | 0.00 | 0.00 | 0.00 | 74 | 1010.3 |
| 20260506070422 | 66 | 161 | 5.0 | 11.0 | 0.00 | 0.00 | 0.00 | 74 | 1010.4 |
| 20260506062335 | 67 | 192 | 5.0 | 10.0 | 0.00 | 0.00 | 0.00 | 72 | 1010.5 |
| 20260506061829 | 67 | 196 | 5.0 | 13.0 | 0.00 | 0.00 | 0.00 | 71 | 1010.5 |
| 20260506061323 | 68 | 189 | 6.0 | 13.0 | 0.00 | 0.00 | 0.00 | 71 | 1010.5 |
| 20260506060817 | 68 | 195 | 6.0 | 12.0 | 0.00 | 0.00 | 0.00 | 71 | 1010.5 |
| 20260506060310 | 68 | 189 | 6.0 | 12.0 | 0.00 | 0.00 | 0.00 | 71 | 1010.5 |
| 20260506051210 | 69 | 225 | 9.0 | 16.0 | 0.00 | 0.00 | 0.00 | 68 | 1010.9 |
| 20260506050704 | 69 | 186 | 8.0 | 15.0 | 0.00 | 0.00 | 0.00 | 68 | 1011.0 |
| 20260506050159 | 69 | 213 | 7.0 | 15.0 | 0.00 | 0.00 | 0.00 | 68 | 1011.0 |
| 20260506044923 | 69 | 217 | 8.0 | 17.0 | 0.00 | 0.00 | 0.00 | 67 | 1011.0 |
| 20260506044151 | 69 | 251 | 8.0 | 15.0 | 0.00 | 0.00 | 0.00 | 66 | 1011.0 |
| 20260506043651 | 69 | 257 | 7.0 | 15.0 | 0.00 | 0.00 | 0.00 | 66 | 1011.0 |
| 20260506043150 | 69 | 207 | 7.0 | 14.0 | 0.00 | 0.00 | 0.00 | 66 | 1010.9 |
| 20260506042651 | 69 | 182 | 9.0 | 17.0 | 0.00 | 0.00 | 0.00 | 66 | 1011.0 |
| 20260506042151 | 69 | 227 | 9.0 | 18.0 | 0.00 | 0.00 | 0.00 | 65 | 1010.9 |
| 20260506041652 | 69 | 207 | 8.0 | 18.0 | 0.00 | 0.00 | 0.00 | 65 | 1011.0 |
| 20260506041150 | 69 | 213 | 9.0 | 22.0 | 0.00 | 0.00 | 0.00 | 64 | 1011.0 |
| 20260506040924 | 69 | 182 | 10.0 | 22.0 | 0.00 | 0.00 | 0.00 | 64 | 1010.9 |
| 20260506040150 | 69 | 194 | 10.0 | 19.0 | 0.00 | 0.00 | 0.00 | 64 | 1010.9 |
| 20260506035922 | 69 | 178 | 9.0 | 18.0 | 0.00 | 0.00 | 0.00 | 63 | 1010.8 |
| 20260506035150 | 70 | 184 | 10.0 | 18.0 | 0.00 | 0.00 | 0.00 | 63 | 1010.8 |
| 20260506034652 | 70 | 215 | 10.0 | 18.0 | 0.00 | 0.00 | 0.00 | 63 | 1010.8 |
| 20260506034147 | 70 | 192 | 10.0 | 19.0 | 0.00 | 0.00 | 0.00 | 63 | 1010.7 |
| 20260506033648 | 70 | 218 | 11.0 | 26.0 | 0.00 | 0.00 | 0.00 | 62 | 1010.8 |
| 20260506033148 | 70 | 170 | 10.0 | 26.0 | 0.00 | 0.00 | 0.00 | 62 | 1010.8 |
| 20260506032648 | 70 | 205 | 9.0 | 20.0 | 0.00 | 0.00 | 0.00 | 62 | 1010.8 |
| 20260506032149 | 70 | 227 | 10.0 | 20.0 | 0.00 | 0.00 | 0.00 | 61 | 1010.9 |
| 20260506031648 | 70 | 245 | 10.0 | 20.0 | 0.00 | 0.00 | 0.00 | 61 | 1010.9 |
| 20260506031147 | 70 | 210 | 11.0 | 20.0 | 0.00 | 0.00 | 0.00 | 61 | 1010.9 |
| 20260506030648 | 70 | 203 | 10.0 | 21.0 | 0.00 | 0.00 | 0.00 | 61 | 1010.9 |
| 20260506030148 | 71 | 218 | 10.0 | 21.0 | 0.00 | 0.00 | 0.00 | 60 | 1011.0 |
| 20260506025649 | 71 | 200 | 10.0 | 21.0 | 0.00 | 0.00 | 0.00 | 60 | 1010.9 |
| 20260506025148 | 71 | 161 | 10.0 | 21.0 | 0.00 | 0.00 | 0.00 | 59 | 1010.9 |
| 20260506024647 | 71 | 180 | 10.0 | 21.0 | 0.00 | 0.00 | 0.00 | 58 | 1010.9 |
| 20260506024148 | 71 | 195 | 11.0 | 21.0 | 0.00 | 0.00 | 0.00 | 59 | 1011.0 |
| 20260506023653 | 71 | 219 | 12.0 | 21.0 | 0.00 | 0.00 | 0.00 | 58 | 1010.9 |
| 20260506023647 | 71 | 188 | 11.0 | 21.0 | 0.00 | 0.00 | 0.00 | 58 | 1010.9 |
| 20260506022649 | 71 | 214 | 11.0 | 22.0 | 0.00 | 0.00 | 0.00 | 57 | 1010.9 |
| 20260506022149 | 71 | 148 | 10.0 | 22.0 | 0.00 | 0.00 | 0.00 | 57 | 1010.9 |
| 20260506021648 | 71 | 215 | 9.0 | 21.0 | 0.00 | 0.00 | 0.00 | 56 | 1011.0 |
| 20260506021148 | 72 | 227 | 9.0 | 19.0 | 0.00 | 0.00 | 0.00 | 56 | 1011.0 |
| 20260506020640 | 71 | 211 | 9.0 | 19.0 | 0.00 | 0.00 | 0.00 | 57 | 1010.9 |
| 20260506020135 | 71 | 203 | 8.0 | 19.0 | 0.00 | 0.00 | 0.00 | 57 | 1010.9 |
| 20260506015635 | 71 | 157 | 9.0 | 17.0 | 0.00 | 0.00 | 0.00 | 57 | 1011.0 |
| 20260506015137 | 71 | 218 | 9.0 | 17.0 | 0.00 | 0.00 | 0.00 | 57 | 1010.9 |
| 20260506014905 | 71 | 189 | 8.0 | 17.0 | 0.00 | 0.00 | 0.00 | 56 | 1010.8 |
| 20260506014135 | 72 | 333 | 8.0 | 17.0 | 0.00 | 0.00 | 0.00 | 56 | 1010.7 |
| 20260506013633 | 72 | 204 | 8.0 | 17.0 | 0.00 | 0.00 | 0.00 | 56 | 1010.7 |
| 20260506013133 | 72 | 192 | 8.0 | 18.0 | 0.00 | 0.00 | 0.00 | 56 | 1010.7 |
| 20260506012635 | 72 | 176 | 9.0 | 18.0 | 0.00 | 0.00 | 0.00 | 56 | 1010.6 |
| 20260506012403 | 72 | 167 | 8.0 | 17.0 | 0.00 | 0.00 | 0.00 | 56 | 1010.6 |
| 20260506011906 | 72 | 184 | 8.0 | 17.0 | 0.00 | 0.00 | 0.00 | 56 | 1010.5 |
| 20260506011132 | 72 | 204 | 9.0 | 17.0 | 0.00 | 0.00 | 0.00 | 56 | 1010.5 |
| 20260506010904 | 73 | 168 | 8.0 | 16.0 | 0.00 | 0.00 | 0.00 | 55 | 1010.4 |
| 20260506010133 | 73 | 176 | 9.0 | 18.0 | 0.00 | 0.00 | 0.00 | 54 | 1010.4 |
| 20260506005629 | 74 | 175 | 8.0 | 18.0 | 0.00 | 0.00 | 0.00 | 52 | 1010.4 |
| 20260506005131 | 74 | 225 | 8.0 | 15.0 | 0.00 | 0.00 | 0.00 | 50 | 1010.4 |
| 20260506004633 | 74 | 172 | 9.0 | 17.0 | 0.00 | 0.00 | 0.00 | 50 | 1010.2 |
| 20260506004131 | 75 | 180 | 8.0 | 17.0 | 0.00 | 0.00 | 0.00 | 49 | 1010.2 |
| 20260506003632 | 75 | 188 | 8.0 | 20.0 | 0.00 | 0.00 | 0.00 | 47 | 1010.1 |
| 20260506003357 | 75 | 206 | 10.0 | 20.0 | 0.00 | 0.00 | 0.00 | 46 | 1010.0 |
| 20260506002622 | 76 | 175 | 9.0 | 18.0 | 0.00 | 0.00 | 0.00 | 45 | 1009.9 |
| 20260506002121 | 76 | 225 | 9.0 | 17.0 | 0.00 | 0.00 | 0.00 | 44 | 1009.8 |
| 20260506001619 | 77 | 204 | 8.0 | 17.0 | 0.00 | 0.00 | 0.00 | 43 | 1009.7 |
| 20260506001119 | 77 | 175 | 8.0 | 14.0 | 0.00 | 0.00 | 0.00 | 43 | 1009.7 |
| 20260506000853 | 77 | 182 | 8.0 | 20.0 | 0.00 | 0.00 | 0.00 | 42 | 1009.6 |
| 20260506000119 | 78 | 211 | 9.0 | 20.0 | 0.00 | 0.00 | 0.00 | 40 | 1009.5 |
| 20260505235621 | 78 | 171 | 10.0 | 24.0 | 0.00 | 0.00 | 0.00 | 39 | 1009.5 |
| 20260505235118 | 78 | 207 | 10.0 | 24.0 | 0.00 | 0.00 | 0.00 | 39 | 1009.6 |
| 20260505234617 | 78 | 243 | 10.0 | 21.0 | 0.00 | 0.00 | 0.00 | 39 | 1009.4 |
| 20260505234349 | 78 | 195 | 10.0 | 21.0 | 0.00 | 0.00 | 0.00 | 39 | 1009.4 |
| 20260505233619 | 78 | 191 | 10.0 | 20.0 | 0.00 | 0.00 | 0.00 | 39 | 1009.3 |
| 20260505233118 | 78 | 197 | 10.0 | 20.0 | 0.00 | 0.00 | 0.00 | 39 | 1009.3 |
| 20260505232613 | 79 | 190 | 8.0 | 19.0 | 0.00 | 0.00 | 0.00 | 39 | 1009.2 |
| 20260505232112 | 79 | 154 | 9.0 | 17.0 | 0.00 | 0.00 | 0.00 | 38 | 1009.1 |
| 20260505231613 | 79 | 201 | 10.0 | 23.0 | 0.00 | 0.00 | 0.00 | 39 | 1009.1 |
| 20260505231114 | 79 | 207 | 11.0 | 23.0 | 0.00 | 0.00 | 0.00 | 38 | 1009.1 |
| 20260505230844 | 79 | 220 | 13.0 | 28.0 | 0.00 | 0.00 | 0.00 | 38 | 1009.1 |
| 20260505230344 | 79 | 208 | 14.0 | 28.0 | 0.00 | 0.00 | 0.00 | 38 | 1009.0 |
| 20260505225608 | 80 | 237 | 13.0 | 24.0 | 0.00 | 0.00 | 0.00 | 37 | 1008.9 |
| 20260505225101 | 80 | 200 | 12.0 | 24.0 | 0.00 | 0.00 | 0.00 | 37 | 1009.0 |
| 20260505224556 | 80 | 198 | 13.0 | 24.0 | 0.00 | 0.00 | 0.00 | 38 | 1009.0 |
| 20260505224049 | 80 | 244 | 14.0 | 25.0 | 0.00 | 0.00 | 0.00 | 37 | 1009.0 |
| 20260505223544 | 81 | 213 | 14.0 | 26.0 | 0.00 | 0.00 | 0.00 | 37 | 1008.8 |
| 20260505223037 | 81 | 238 | 13.0 | 26.0 | 0.00 | 0.00 | 0.00 | 36 | 1008.9 |
| 20260505222532 | 81 | 213 | 13.0 | 22.0 | 0.00 | 0.00 | 0.00 | 36 | 1008.9 |
| 20260505222256 | 81 | 245 | 13.0 | 22.0 | 0.00 | 0.00 | 0.00 | 35 | 1008.9 |
| 20260505221519 | 81 | 243 | 13.0 | 25.0 | 0.00 | 0.00 | 0.00 | 34 | 1008.8 |
| 20260505221243 | 82 | 175 | 13.0 | 25.0 | 0.00 | 0.00 | 0.00 | 34 | 1008.8 |
| 20260505220738 | 82 | 194 | 14.0 | 28.0 | 0.00 | 0.00 | 0.00 | 32 | 1008.9 |
| 20260505220001 | 82 | 189 | 15.0 | 27.0 | 0.00 | 0.00 | 0.00 | 32 | 1008.7 |
| 20260505215458 | 82 | 192 | 14.0 | 28.0 | 0.00 | 0.00 | 0.00 | 31 | 1008.7 |
| 20260505215451 | 82 | 191 | 13.0 | 24.0 | 0.00 | 0.00 | 0.00 | 31 | 1008.7 |
| 20260505214443 | 82 | 257 | 14.0 | 24.0 | 0.00 | 0.00 | 0.00 | 31 | 1008.7 |
| 20260505213937 | 82 | 211 | 14.0 | 24.0 | 0.00 | 0.00 | 0.00 | 30 | 1008.8 |
| 20260505213431 | 83 | 153 | 13.0 | 24.0 | 0.00 | 0.00 | 0.00 | 30 | 1008.8 |
| 20260505212925 | 83 | 198 | 13.0 | 25.0 | 0.00 | 0.00 | 0.00 | 30 | 1008.8 |
| 20260505212651 | 83 | 174 | 14.0 | 25.0 | 0.00 | 0.00 | 0.00 | 29 | 1008.7 |
| 20260505211914 | 83 | 232 | 14.0 | 33.0 | 0.00 | 0.00 | 0.00 | 29 | 1008.8 |
| 20260505211638 | 83 | 221 | 15.0 | 26.0 | 0.00 | 0.00 | 0.00 | 29 | 1008.7 |
| 20260505210901 | 83 | 230 | 15.0 | 27.0 | 0.00 | 0.00 | 0.00 | 29 | 1008.7 |
| 20260505210356 | 83 | 224 | 14.0 | 27.0 | 0.00 | 0.00 | 0.00 | 28 | 1008.5 |
| 20260505205849 | 83 | 174 | 13.0 | 25.0 | 0.00 | 0.00 | 0.00 | 28 | 1008.5 |
| 20260505205343 | 83 | 217 | 14.0 | 26.0 | 0.00 | 0.00 | 0.00 | 27 | 1008.6 |
| 20260505204837 | 83 | 261 | 14.0 | 26.0 | 0.00 | 0.00 | 0.00 | 27 | 1008.4 |
| 20260505204332 | 83 | 253 | 16.0 | 27.0 | 0.00 | 0.00 | 0.00 | 28 | 1008.4 |
| 20260505203826 | 83 | 224 | 16.0 | 28.0 | 0.00 | 0.00 | 0.00 | 27 | 1008.4 |
| 20260505203318 | 83 | 107 | 16.0 | 34.0 | 0.00 | 0.00 | 0.00 | 26 | 1008.5 |
| 20260505202817 | 83 | 173 | 16.0 | 34.0 | 0.00 | 0.00 | 0.00 | 28 | 1008.7 |
| 20260505202810 | 83 | 209 | 14.0 | 28.0 | 0.00 | 0.00 | 0.00 | 28 | 1008.5 |
| 20260505201802 | 84 | 265 | 13.0 | 25.0 | 0.00 | 0.00 | 0.00 | 29 | 1008.5 |
| 20260505201255 | 84 | 217 | 15.0 | 36.0 | 0.00 | 0.00 | 0.00 | 28 | 1008.7 |
| 20260505200749 | 84 | 243 | 17.0 | 36.0 | 0.00 | 0.00 | 0.00 | 28 | 1008.5 |
| 20260505200243 | 84 | 219 | 15.0 | 30.0 | 0.00 | 0.00 | 0.00 | 29 | 1008.6 |
| 20260505195737 | 84 | 189 | 14.0 | 30.0 | 0.00 | 0.00 | 0.00 | 30 | 1008.6 |
| 20260505195231 | 84 | 207 | 13.0 | 27.0 | 0.00 | 0.00 | 0.00 | 31 | 1008.6 |
| 20260505194726 | 84 | 229 | 13.0 | 30.0 | 0.00 | 0.00 | 0.00 | 32 | 1008.6 |
| 20260505194219 | 84 | 170 | 13.0 | 30.0 | 0.00 | 0.00 | 0.00 | 33 | 1008.7 |
| 20260505193713 | 84 | 172 | 14.0 | 28.0 | 0.00 | 0.00 | 0.00 | 32 | 1008.6 |
| 20260505193207 | 84 | 163 | 13.0 | 28.0 | 0.00 | 0.00 | 0.00 | 32 | 1008.7 |
| 20260505192932 | 84 | 189 | 12.0 | 26.0 | 0.00 | 0.00 | 0.00 | 35 | 1008.9 |
| 20260505192156 | 83 | 215 | 14.0 | 26.0 | 0.00 | 0.00 | 0.00 | 33 | 1008.8 |
| 20260505191649 | 83 | 199 | 12.0 | 23.0 | 0.00 | 0.00 | 0.00 | 33 | 1009.0 |
| 20260505191143 | 84 | 206 | 11.0 | 24.0 | 0.00 | 0.00 | 0.00 | 34 | 1008.9 |
| 20260505190637 | 83 | 216 | 11.0 | 24.0 | 0.00 | 0.00 | 0.00 | 36 | 1009.1 |
| 20260505190131 | 83 | 227 | 14.0 | 23.0 | 0.00 | 0.00 | 0.00 | 36 | 1009.2 |
| 20260505185626 | 83 | 226 | 15.0 | 26.0 | 0.00 | 0.00 | 0.00 | 35 | 1009.3 |
| 20260505185352 | 83 | 234 | 13.0 | 26.0 | 0.00 | 0.00 | 0.00 | 35 | 1009.3 |
| 20260505184613 | 83 | 202 | 14.0 | 29.0 | 0.00 | 0.00 | 0.00 | 35 | 1009.5 |
| 20260505184107 | 83 | 185 | 15.0 | 32.0 | 0.00 | 0.00 | 0.00 | 36 | 1009.6 |
| 20260505183837 | 83 | 205 | 13.0 | 32.0 | 0.00 | 0.00 | 0.00 | 35 | 1009.6 |
| 20260505183106 | 83 | 201 | 11.0 | 21.0 | 0.00 | 0.00 | 0.00 | 37 | 1009.6 |
| 20260505182606 | 83 | 217 | 11.0 | 19.0 | 0.00 | 0.00 | 0.00 | 36 | 1009.6 |
| 20260505182106 | 83 | 209 | 11.0 | 20.0 | 0.00 | 0.00 | 0.00 | 37 | 1009.7 |
| 20260505181605 | 82 | 227 | 11.0 | 20.0 | 0.00 | 0.00 | 0.00 | 37 | 1009.7 |
| 20260505181337 | 83 | 217 | 11.0 | 25.0 | 0.00 | 0.00 | 0.00 | 37 | 1009.8 |
| 20260505180606 | 82 | 198 | 12.0 | 25.0 | 0.00 | 0.00 | 0.00 | 37 | 1009.9 |
| 20260505180104 | 82 | 198 | 12.0 | 22.0 | 0.00 | 0.00 | 0.00 | 38 | 1010.0 |
| 20260505175607 | 82 | 184 | 11.0 | 22.0 | 0.00 | 0.00 | 0.00 | 38 | 1010.2 |
| 20260505175105 | 82 | 229 | 10.0 | 21.0 | 0.00 | 0.00 | 0.00 | 38 | 1010.1 |
| 20260505174605 | 82 | 266 | 11.0 | 20.0 | 0.00 | 0.00 | 0.00 | 39 | 1010.1 |
| 20260505174106 | 82 | 263 | 12.0 | 24.0 | 0.00 | 0.00 | 0.00 | 38 | 1010.2 |
| 20260505173839 | 81 | 246 | 12.0 | 24.0 | 0.00 | 0.00 | 0.00 | 39 | 1010.3 |
| 20260505173105 | 81 | 277 | 11.0 | 22.0 | 0.00 | 0.00 | 0.00 | 40 | 1010.3 |